SL-14 DEB, 45282

Orbit data source: Space-Track

SL-14 DEB, 45282 is space debris in LEO originally from a launch on Thu, 15 Aug 1991 UTC launched from the Plesetsk Missile And Space Complex (PKMTR). Debris objects in space refer to the collection of defunct objects orbiting the Earth. Examples of debris include non-operational satellites, rocket bodies, and fragments generated from explosions, collisions, or faulty payload assembly.

Loading next visibility...
Identifier
45282, 1991-056U
Orbit
LEO
Country
Flag of CISCIS
Related business
Manufacturer
Unknown
Mission
Spacecraft
Bus & Motor
Unknown
Mass
Unknown
Launch date (UTC)
1991-08-15 (35 years ago)
Launch vehicle
Unknown
Launch site
Plesetsk Missile And Space Complex (PKMTR)
Object type
Payload
Rocket body
Debris
Shape & HBR
Unknown shape, 0.2 m
Radar Cross Section
Small (<0.1 m²)

Expand to show TLE details & history
Last TLE update: 7 hours ago

TLE from 7 hours ago
0 SL-14 DEB
1 45282U 91056U   26128.24258904  .00000413  00000-0  10424-2 0  9996
2 45282  82.6222 186.0896 0013806 269.5385  90.4155 13.16855001299126
Epoch: 2026-05-08T05:49Z
TLE epoch observation values (Epoch: 2026-05-08T05:49:19.693Z)
Latitude
-0.00004°
Longitude
-127.31964°
Altitude
1,199.656 km
Speed
7.254 km/s
True Right ascension
12h 24m 21s
True Declination
0° 00' 00"
Sunlit
Object was in full shadow at epoch
Visualization orbit readout
Latitude
Unknown
Longitude
Unknown
Altitude
Unknown
Speed
Unknown
Apparent Right ascension
Unknown
Apparent Declination
Unknown
Sunlit
N/A
Visualization observer readout
Local Sidereal Time
20:59:14
Azimuth
Unknown
Elevation
Unknown
Doppler factor
Unknown
Orbital elements
Apogee altitude
1,204.453 km
Perigee altitude
1,183.545 km
Semi-major axis
7,572.136 km
Eccentricity
0.00138
Inclination
82.6222°
RAAN
186.0896°
Arg. of periapsis
269.5385°
True anomaly
90.5737°
Mean anomaly
90.4155°
Eccentric anomaly
90.4946°
Mean motion
3.29394 °/min
Orbital period
109.29 mins
BSTAR
0.0010424
Loading maneuver chart data...
Computing Atmospheric mass density...
Loading historical data...
Loading historical data...
Loading historical data...
Loading historical data...
Loading historical data...
Loading historical data...
Loading historical data...

Documentation

Showing up to 5 results
|